Location: Observatoire
(46.1952°N, 5.3391°E)
Time: 14:54:02
(UTC+01:00)

A-11 Canister half - Pass Details

Date: 21 February 2026
Orbit: 1513 x 1687 km, 47.2° (Epoch: 11 March)

Event Time Altitude Azimuth Distance (km) Brightness Sun altitude
Rises 00:48:39 0° 281° (W) 4,924 11.8 -54.4°
Enters shadow 00:50:02 - 281° (W) 4,491 11.5 -54.4°
Reaches altitude 10° 00:51:51 10° 281° (WNW) 3,922 - -54.4°
Maximum altitude 01:01:57 89° 195° (SSW) 1,633 - -54.4°
Drops below altitude 10° 01:11:39 10° 106° (ESE) 3,784 - -54.2°
Sets 01:14:41 0° 106° (ESE) 4,745 - -54.1°
